Location: Gilevgi
(36.8751°N, 30.0581°E)
Time: 22:45:04
(UTC+00:00)

Cosmos 1244 Rocket - Pass Details

Date: 11 December 2025
Orbit: 952 x 997 km, 83.0° (Epoch: 14 January)

Event Time Altitude Azimuth Distance (km) Brightness Sun altitude
Rises 16:42:14 0° 352° (N) 3,690 7.5 -23.0°
Reaches altitude 10° 16:44:46 10° 353° (N) 2,732 6.8 -23.5°
Maximum altitude 16:51:02 86° 266° (W) 975 4.4 -24.8°
Drops below altitude 10° 16:57:11 10° 177° (S) 2,685 6.9 -26.0°
Sets 16:59:40 0° 177° (S) 3,623 7.6 -26.4°
